Year,Month,Day,Hour,Minute,Value (Times are PST for insolation in W/m^2)
2006,04,15,00,00,0.00
2006,04,15,00,01,0.00
2006,04,15,00,02,0.00
2006,04,15,00,03,0.00
2006,04,15,00,04,0.00
2006,04,15,00,05,0.00
2006,04,15,00,06,0.00
2006,04,15,00,07,0.00
2006,04,15,00,08,0.00
2006,04,15,00,09,0.00
2006,04,15,00,10,0.00
2006,04,15,00,11,0.00
2006,04,15,00,12,0.00
2006,04,15,00,13,0.00
2006,04,15,00,14,0.00
2006,04,15,00,15,0.00
2006,04,15,00,16,0.00
2006,04,15,00,17,0.00
2006,04,15,00,18,0.00
2006,04,15,00,19,0.00
2006,04,15,00,20,0.00
2006,04,15,00,21,0.00
2006,04,15,00,22,0.00
2006,04,15,00,23,0.00
2006,04,15,00,24,0.00
2006,04,15,00,25,0.00
2006,04,15,00,26,0.00
2006,04,15,00,27,0.00
2006,04,15,00,28,0.00
2006,04,15,00,29,0.00
2006,04,15,00,30,0.00
2006,04,15,00,31,0.00
2006,04,15,00,32,0.00
2006,04,15,00,33,0.00
2006,04,15,00,34,0.00
2006,04,15,00,35,0.00
2006,04,15,00,36,0.00
2006,04,15,00,37,0.00
2006,04,15,00,38,0.00
2006,04,15,00,39,0.00
2006,04,15,00,40,0.00
2006,04,15,00,41,0.00
2006,04,15,00,42,0.00
2006,04,15,00,43,0.00
2006,04,15,00,44,0.00
2006,04,15,00,45,0.00
2006,04,15,00,46,0.00
2006,04,15,00,47,0.00
2006,04,15,00,48,0.00
2006,04,15,00,49,0.00
2006,04,15,00,50,0.00
2006,04,15,00,51,0.00
2006,04,15,00,52,0.00
2006,04,15,00,53,0.00
2006,04,15,00,54,0.00
2006,04,15,00,55,0.00
2006,04,15,00,56,0.00
2006,04,15,00,57,0.00
2006,04,15,00,58,0.00
2006,04,15,00,59,0.00
2006,04,15,01,00,0.00
2006,04,15,01,01,0.00
2006,04,15,01,02,0.00
2006,04,15,01,03,0.00
2006,04,15,01,04,0.00
2006,04,15,01,05,0.00
2006,04,15,01,06,0.00
2006,04,15,01,07,0.00
2006,04,15,01,08,0.00
2006,04,15,01,09,0.00
2006,04,15,01,10,0.00
2006,04,15,01,11,0.00
2006,04,15,01,12,0.00
2006,04,15,01,13,0.00
2006,04,15,01,14,0.00
2006,04,15,01,15,0.00
2006,04,15,01,16,0.00
2006,04,15,01,17,0.00
2006,04,15,01,18,0.00
2006,04,15,01,19,0.00
2006,04,15,01,20,0.00
2006,04,15,01,21,0.00
2006,04,15,01,22,0.00
2006,04,15,01,23,0.00
2006,04,15,01,24,0.00
2006,04,15,01,25,0.00
2006,04,15,01,26,0.00
2006,04,15,01,27,0.00
2006,04,15,01,28,0.00
2006,04,15,01,29,0.00
2006,04,15,01,30,0.00
2006,04,15,01,31,0.00
2006,04,15,01,32,0.00
2006,04,15,01,33,0.00
2006,04,15,01,34,0.00
2006,04,15,01,35,0.00
2006,04,15,01,36,0.00
2006,04,15,01,37,0.00
2006,04,15,01,38,0.00
2006,04,15,01,39,0.00
2006,04,15,01,40,0.00
2006,04,15,01,41,0.00
2006,04,15,01,42,0.00
2006,04,15,01,43,0.00
2006,04,15,01,44,0.00
2006,04,15,01,45,0.00
2006,04,15,01,46,0.00
2006,04,15,01,47,0.00
2006,04,15,01,48,0.00
2006,04,15,01,49,0.00
2006,04,15,01,50,0.00
2006,04,15,01,51,0.00
2006,04,15,01,52,0.00
2006,04,15,01,53,0.00
2006,04,15,01,54,0.00
2006,04,15,01,55,0.00
2006,04,15,01,56,0.00
2006,04,15,01,57,0.00
2006,04,15,01,58,0.00
2006,04,15,01,59,0.00
2006,04,15,02,00,0.00
2006,04,15,02,01,0.00
2006,04,15,02,02,0.00
2006,04,15,02,03,0.00
2006,04,15,02,04,0.00
2006,04,15,02,05,0.00
2006,04,15,02,06,0.00
2006,04,15,02,07,0.00
2006,04,15,02,08,0.00
2006,04,15,02,09,0.00
2006,04,15,02,10,0.00
2006,04,15,02,11,0.00
2006,04,15,02,12,0.00
2006,04,15,02,13,0.00
2006,04,15,02,14,0.00
2006,04,15,02,15,0.00
2006,04,15,02,16,0.00
2006,04,15,02,17,0.00
2006,04,15,02,18,0.00
2006,04,15,02,19,0.00
2006,04,15,02,20,0.00
2006,04,15,02,21,0.00
2006,04,15,02,22,0.00
2006,04,15,02,23,0.00
2006,04,15,02,24,0.00
2006,04,15,02,25,0.00
2006,04,15,02,26,0.00
2006,04,15,02,27,0.00
2006,04,15,02,28,0.00
2006,04,15,02,29,0.00
2006,04,15,02,30,0.00
2006,04,15,02,31,0.00
2006,04,15,02,32,0.00
2006,04,15,02,33,0.00
2006,04,15,02,34,0.00
2006,04,15,02,35,0.00
2006,04,15,02,36,0.00
2006,04,15,02,37,0.00
2006,04,15,02,38,0.00
2006,04,15,02,39,0.00
2006,04,15,02,40,0.00
2006,04,15,02,41,0.00
2006,04,15,02,42,0.00
2006,04,15,02,43,0.00
2006,04,15,02,44,0.00
2006,04,15,02,45,0.00
2006,04,15,02,46,0.00
2006,04,15,02,47,0.00
2006,04,15,02,48,0.00
2006,04,15,02,49,0.00
2006,04,15,02,50,0.00
2006,04,15,02,51,0.00
2006,04,15,02,52,0.00
2006,04,15,02,53,0.00
2006,04,15,02,54,0.00
2006,04,15,02,55,0.00
2006,04,15,02,56,0.00
2006,04,15,02,57,0.00
2006,04,15,02,58,0.00
2006,04,15,02,59,0.00
2006,04,15,03,00,0.00
2006,04,15,03,01,0.00
2006,04,15,03,02,0.00
2006,04,15,03,03,0.00
2006,04,15,03,04,0.00
2006,04,15,03,05,0.00
2006,04,15,03,06,0.00
2006,04,15,03,07,0.00
2006,04,15,03,08,0.00
2006,04,15,03,09,0.00
2006,04,15,03,10,0.00
2006,04,15,03,11,0.00
2006,04,15,03,12,0.00
2006,04,15,03,13,0.00
2006,04,15,03,14,0.00
2006,04,15,03,15,0.00
2006,04,15,03,16,0.00
2006,04,15,03,17,0.00
2006,04,15,03,18,0.00
2006,04,15,03,19,0.00
2006,04,15,03,20,0.00
2006,04,15,03,21,0.00
2006,04,15,03,22,0.00
2006,04,15,03,23,0.00
2006,04,15,03,24,0.00
2006,04,15,03,25,0.00
2006,04,15,03,26,0.00
2006,04,15,03,27,0.00
2006,04,15,03,28,0.00
2006,04,15,03,29,0.00
2006,04,15,03,30,0.00
2006,04,15,03,31,0.00
2006,04,15,03,32,0.00
2006,04,15,03,33,0.00
2006,04,15,03,34,0.00
2006,04,15,03,35,0.00
2006,04,15,03,36,0.00
2006,04,15,03,37,0.00
2006,04,15,03,38,0.00
2006,04,15,03,39,0.00
2006,04,15,03,40,0.00
2006,04,15,03,41,0.00
2006,04,15,03,42,0.00
2006,04,15,03,43,0.00
2006,04,15,03,44,0.00
2006,04,15,03,45,0.00
2006,04,15,03,46,0.00
2006,04,15,03,47,0.00
2006,04,15,03,48,0.00
2006,04,15,03,49,0.00
2006,04,15,03,50,0.00
2006,04,15,03,51,0.00
2006,04,15,03,52,0.00
2006,04,15,03,53,0.00
2006,04,15,03,54,0.00
2006,04,15,03,55,0.00
2006,04,15,03,56,0.00
2006,04,15,03,57,0.00
2006,04,15,03,58,0.00
2006,04,15,03,59,0.00
2006,04,15,04,00,0.00
2006,04,15,04,01,0.00
2006,04,15,04,02,0.00
2006,04,15,04,03,0.00
2006,04,15,04,04,0.00
2006,04,15,04,05,0.00
2006,04,15,04,06,0.00
2006,04,15,04,07,0.00
2006,04,15,04,08,0.00
2006,04,15,04,09,0.00
2006,04,15,04,10,0.00
2006,04,15,04,11,0.00
2006,04,15,04,12,0.00
2006,04,15,04,13,0.00
2006,04,15,04,14,0.00
2006,04,15,04,15,0.00
2006,04,15,04,16,0.00
2006,04,15,04,17,0.00
2006,04,15,04,18,0.00
2006,04,15,04,19,0.00
2006,04,15,04,20,0.00
2006,04,15,04,21,0.00
2006,04,15,04,22,0.00
2006,04,15,04,23,0.00
2006,04,15,04,24,0.00
2006,04,15,04,25,0.00
2006,04,15,04,26,0.00
2006,04,15,04,27,0.00
2006,04,15,04,28,0.00
2006,04,15,04,29,0.00
2006,04,15,04,30,0.00
2006,04,15,04,31,0.00
2006,04,15,04,32,0.00
2006,04,15,04,33,0.00
2006,04,15,04,34,0.00
2006,04,15,04,35,0.00
2006,04,15,04,36,0.00
2006,04,15,04,37,0.00
2006,04,15,04,38,0.00
2006,04,15,04,39,0.00
2006,04,15,04,40,0.00
2006,04,15,04,41,0.00
2006,04,15,04,42,0.00
2006,04,15,04,43,0.00
2006,04,15,04,44,0.00
2006,04,15,04,45,0.00
2006,04,15,04,46,0.00
2006,04,15,04,47,0.00
2006,04,15,04,48,0.00
2006,04,15,04,49,0.00
2006,04,15,04,50,0.00
2006,04,15,04,51,0.00
2006,04,15,04,52,0.00
2006,04,15,04,53,0.00
2006,04,15,04,54,0.00
2006,04,15,04,55,0.00
2006,04,15,04,56,0.00
2006,04,15,04,57,0.00
2006,04,15,04,58,0.00
2006,04,15,04,59,0.00
2006,04,15,05,00,0.00
2006,04,15,05,01,0.00
2006,04,15,05,02,0.00
2006,04,15,05,03,0.00
2006,04,15,05,04,0.00
2006,04,15,05,05,0.00
2006,04,15,05,06,0.00
2006,04,15,05,07,0.00
2006,04,15,05,08,0.00
2006,04,15,05,09,0.00
2006,04,15,05,10,0.00
2006,04,15,05,11,0.00
2006,04,15,05,12,0.00
2006,04,15,05,13,0.00
2006,04,15,05,14,0.00
2006,04,15,05,15,0.00
2006,04,15,05,16,0.00
2006,04,15,05,17,0.00
2006,04,15,05,18,0.00
2006,04,15,05,19,0.00
2006,04,15,05,20,0.00
2006,04,15,05,21,0.00
2006,04,15,05,22,0.00
2006,04,15,05,23,0.00
2006,04,15,05,24,0.00
2006,04,15,05,25,0.00
2006,04,15,05,26,0.00
2006,04,15,05,27,0.00
2006,04,15,05,28,0.00
2006,04,15,05,29,0.00
2006,04,15,05,30,0.00
2006,04,15,05,31,0.00
2006,04,15,05,32,0.00
2006,04,15,05,33,0.00
2006,04,15,05,34,0.00
2006,04,15,05,35,0.00
2006,04,15,05,36,0.00
2006,04,15,05,37,0.00
2006,04,15,05,38,0.00
2006,04,15,05,39,0.00
2006,04,15,05,40,0.00
2006,04,15,05,41,0.00
2006,04,15,05,42,0.00
2006,04,15,05,43,0.00
2006,04,15,05,44,0.00
2006,04,15,05,45,0.00
2006,04,15,05,46,0.00
2006,04,15,05,47,0.00
2006,04,15,05,48,0.00
2006,04,15,05,49,0.00
2006,04,15,05,50,0.00
2006,04,15,05,51,0.00
2006,04,15,05,52,0.00
2006,04,15,05,53,0.00
2006,04,15,05,54,0.00
2006,04,15,05,55,0.00
2006,04,15,05,56,0.00
2006,04,15,05,57,0.00
2006,04,15,05,58,0.00
2006,04,15,05,59,0.00
2006,04,15,06,00,0.00
2006,04,15,06,01,0.00
2006,04,15,06,02,0.00
2006,04,15,06,03,0.00
2006,04,15,06,04,0.00
2006,04,15,06,05,0.00
2006,04,15,06,06,0.00
2006,04,15,06,07,0.00
2006,04,15,06,08,0.00
2006,04,15,06,09,0.00
2006,04,15,06,10,0.00
2006,04,15,06,11,0.00
2006,04,15,06,12,0.00
2006,04,15,06,13,0.00
2006,04,15,06,14,0.00
2006,04,15,06,15,0.00
2006,04,15,06,16,0.00
2006,04,15,06,17,0.00
2006,04,15,06,18,0.00
2006,04,15,06,19,0.00
2006,04,15,06,20,0.00
2006,04,15,06,21,0.00
2006,04,15,06,22,0.00
2006,04,15,06,23,0.00
2006,04,15,06,24,0.00
2006,04,15,06,25,0.00
2006,04,15,06,26,0.00
2006,04,15,06,27,0.00
2006,04,15,06,28,0.00
2006,04,15,06,29,0.00
2006,04,15,06,30,0.00
2006,04,15,06,31,0.00
2006,04,15,06,32,0.00
2006,04,15,06,33,0.00
2006,04,15,06,34,0.00
2006,04,15,06,35,0.00
2006,04,15,06,36,0.00
2006,04,15,06,37,0.00
2006,04,15,06,38,0.00
2006,04,15,06,39,3.00
2006,04,15,06,40,5.00
2006,04,15,06,41,5.00
2006,04,15,06,42,5.00
2006,04,15,06,43,5.00
2006,04,15,06,44,5.00
2006,04,15,06,45,6.30
2006,04,15,06,46,7.00
2006,04,15,06,47,8.90
2006,04,15,06,48,9.00
2006,04,15,06,49,9.00
2006,04,15,06,50,10.00
2006,04,15,06,51,11.00
2006,04,15,06,52,11.00
2006,04,15,06,53,11.00
2006,04,15,06,54,11.00
2006,04,15,06,55,11.40
2006,04,15,06,56,12.00
2006,04,15,06,57,12.00
2006,04,15,06,58,12.00
2006,04,15,06,59,13.90
2006,04,15,07,00,14.00
2006,04,15,07,01,14.80
2006,04,15,07,02,16.00
2006,04,15,07,03,16.00
2006,04,15,07,04,16.00
2006,04,15,07,05,18.00
2006,04,15,07,06,18.00
2006,04,15,07,07,18.00
2006,04,15,07,08,18.00
2006,04,15,07,09,18.00
2006,04,15,07,10,18.00
2006,04,15,07,11,18.20
2006,04,15,07,12,19.00
2006,04,15,07,13,19.00
2006,04,15,07,14,20.20
2006,04,15,07,15,21.00
2006,04,15,07,16,22.80
2006,04,15,07,17,23.00
2006,04,15,07,18,23.00
2006,04,15,07,19,25.10
2006,04,15,07,20,28.00
2006,04,15,07,21,29.50
2006,04,15,07,22,31.90
2006,04,15,07,23,33.00
2006,04,15,07,24,33.70
2006,04,15,07,25,35.90
2006,04,15,07,26,37.00
2006,04,15,07,27,39.20
2006,04,15,07,28,40.20
2006,04,15,07,29,44.00
2006,04,15,07,30,44.00
2006,04,15,07,31,44.00
2006,04,15,07,32,44.00
2006,04,15,07,33,44.00
2006,04,15,07,34,44.00
2006,04,15,07,35,44.00
2006,04,15,07,36,44.00
2006,04,15,07,37,44.00
2006,04,15,07,38,44.00
2006,04,15,07,39,44.00
2006,04,15,07,40,44.00
2006,04,15,07,41,44.00
2006,04,15,07,42,44.80
2006,04,15,07,43,46.00
2006,04,15,07,44,46.00
2006,04,15,07,45,46.80
2006,04,15,07,46,48.90
2006,04,15,07,47,49.00
2006,04,15,07,48,50.60
2006,04,15,07,49,53.00
2006,04,15,07,50,53.70
2006,04,15,07,51,54.00
2006,04,15,07,52,54.00
2006,04,15,07,53,54.00
2006,04,15,07,54,54.00
2006,04,15,07,55,54.00
2006,04,15,07,56,54.00
2006,04,15,07,57,57.60
2006,04,15,07,58,60.40
2006,04,15,07,59,62.30
2006,04,15,08,00,63.00
2006,04,15,08,01,63.00
2006,04,15,08,02,63.00
2006,04,15,08,03,63.00
2006,04,15,08,04,63.00
2006,04,15,08,05,63.00
2006,04,15,08,06,64.00
2006,04,15,08,07,66.30
2006,04,15,08,08,68.60
2006,04,15,08,09,69.00
2006,04,15,08,10,70.40
2006,04,15,08,11,76.00
2006,04,15,08,12,80.00
2006,04,15,08,13,84.00
2006,04,15,08,14,95.80
2006,04,15,08,15,99.50
2006,04,15,08,16,113.80
2006,04,15,08,17,117.50
2006,04,15,08,18,120.60
2006,04,15,08,19,121.00
2006,04,15,08,20,122.60
2006,04,15,08,21,123.00
2006,04,15,08,22,124.00
2006,04,15,08,23,128.30
2006,04,15,08,24,133.90
2006,04,15,08,25,144.50
2006,04,15,08,26,159.90
2006,04,15,08,27,180.50
2006,04,15,08,28,196.90
2006,04,15,08,29,205.20
2006,04,15,08,30,201.20
2006,04,15,08,31,199.00
2006,04,15,08,32,183.70
2006,04,15,08,33,178.80
2006,04,15,08,34,167.00
2006,04,15,08,35,167.00
2006,04,15,08,36,167.00
2006,04,15,08,37,167.00
2006,04,15,08,38,174.70
2006,04,15,08,39,200.60
2006,04,15,08,40,201.10
2006,04,15,08,41,220.30
2006,04,15,08,42,230.40
2006,04,15,08,43,249.00
2006,04,15,08,44,234.00
2006,04,15,08,45,264.20
2006,04,15,08,46,265.00
2006,04,15,08,47,260.50
2006,04,15,08,48,255.00
2006,04,15,08,49,321.40
2006,04,15,08,50,375.30
2006,04,15,08,51,401.00
2006,04,15,08,52,401.00
2006,04,15,08,53,401.00
2006,04,15,08,54,401.00
2006,04,15,08,55,401.00
2006,04,15,08,56,401.00
2006,04,15,08,57,401.00
2006,04,15,08,58,401.00
2006,04,15,08,59,401.00
2006,04,15,09,00,401.00
2006,04,15,09,01,289.80
2006,04,15,09,02,269.00
2006,04,15,09,03,244.50
2006,04,15,09,04,160.30
2006,04,15,09,05,142.00
2006,04,15,09,06,174.50
2006,04,15,09,07,172.40
2006,04,15,09,08,141.60
2006,04,15,09,09,143.50
2006,04,15,09,10,161.90
2006,04,15,09,11,170.20
2006,04,15,09,12,194.10
2006,04,15,09,13,204.00
2006,04,15,09,14,213.00
2006,04,15,09,15,213.00
2006,04,15,09,16,213.00
2006,04,15,09,17,213.00
2006,04,15,09,18,213.00
2006,04,15,09,19,213.00
2006,04,15,09,20,213.00
2006,04,15,09,21,213.00
2006,04,15,09,22,198.00
2006,04,15,09,23,183.00
2006,04,15,09,24,183.00
2006,04,15,09,25,152.10
2006,04,15,09,26,160.60
2006,04,15,09,27,179.00
2006,04,15,09,28,179.00
2006,04,15,09,29,179.00
2006,04,15,09,30,179.00
2006,04,15,09,31,235.80
2006,04,15,09,32,229.60
2006,04,15,09,33,201.60
2006,04,15,09,34,219.00
2006,04,15,09,35,220.00
2006,04,15,09,36,220.00
2006,04,15,09,37,212.90
2006,04,15,09,38,224.50
2006,04,15,09,39,244.80
2006,04,15,09,40,207.70
2006,04,15,09,41,234.50
2006,04,15,09,42,271.20
2006,04,15,09,43,218.00
2006,04,15,09,44,218.00
2006,04,15,09,45,258.80
2006,04,15,09,46,283.70
2006,04,15,09,47,245.40
2006,04,15,09,48,243.00
2006,04,15,09,49,243.00
2006,04,15,09,50,243.00
2006,04,15,09,51,237.50
2006,04,15,09,52,225.10
2006,04,15,09,53,227.60
2006,04,15,09,54,233.40
2006,04,15,09,55,218.80
2006,04,15,09,56,208.70
2006,04,15,09,57,208.90
2006,04,15,09,58,222.50
2006,04,15,09,59,309.50
2006,04,15,10,00,321.50
2006,04,15,10,01,227.00
2006,04,15,10,02,227.00
2006,04,15,10,03,227.00
2006,04,15,10,04,251.00
2006,04,15,10,05,267.00
2006,04,15,10,06,346.30
2006,04,15,10,07,357.00
2006,04,15,10,08,352.80
2006,04,15,10,09,310.40
2006,04,15,10,10,264.20
2006,04,15,10,11,232.40
2006,04,15,10,12,229.50
2006,04,15,10,13,220.50
2006,04,15,10,14,193.40
2006,04,15,10,15,224.00
2006,04,15,10,16,239.00
2006,04,15,10,17,232.10
2006,04,15,10,18,213.90
2006,04,15,10,19,214.60
2006,04,15,10,20,238.50
2006,04,15,10,21,280.40
2006,04,15,10,22,288.00
2006,04,15,10,23,282.40
2006,04,15,10,24,279.40
2006,04,15,10,25,263.50
2006,04,15,10,26,252.80
2006,04,15,10,27,243.00
2006,04,15,10,28,227.60
2006,04,15,10,29,221.00
2006,04,15,10,30,211.00
2006,04,15,10,31,218.80
2006,04,15,10,32,237.00
2006,04,15,10,33,237.00
2006,04,15,10,34,252.50
2006,04,15,10,35,258.00
2006,04,15,10,36,235.90
2006,04,15,10,37,214.80
2006,04,15,10,38,206.00
2006,04,15,10,39,206.00
2006,04,15,10,40,191.30
2006,04,15,10,41,202.30
2006,04,15,10,42,205.10
2006,04,15,10,43,202.10
2006,04,15,10,44,213.20
2006,04,15,10,45,220.00
2006,04,15,10,46,204.20
2006,04,15,10,47,212.10
2006,04,15,10,48,217.00
2006,04,15,10,49,185.90
2006,04,15,10,50,150.30
2006,04,15,10,51,144.00
2006,04,15,10,52,144.00
2006,04,15,10,53,202.60
2006,04,15,10,54,212.20
2006,04,15,10,55,214.20
2006,04,15,10,56,211.00
2006,04,15,10,57,207.80
2006,04,15,10,58,188.50
2006,04,15,10,59,190.20
2006,04,15,11,00,214.50
2006,04,15,11,01,219.10
2006,04,15,11,02,209.00
2006,04,15,11,03,189.50
2006,04,15,11,04,192.50
2006,04,15,11,05,182.90
2006,04,15,11,06,176.00
2006,04,15,11,07,156.80
2006,04,15,11,08,114.80
2006,04,15,11,09,91.70
2006,04,15,11,10,83.40
2006,04,15,11,11,84.20
2006,04,15,11,12,95.80
2006,04,15,11,13,121.30
2006,04,15,11,14,141.60
2006,04,15,11,15,127.30
2006,04,15,11,16,121.00
2006,04,15,11,17,119.40
2006,04,15,11,18,109.20
2006,04,15,11,19,119.30
2006,04,15,11,20,155.00
2006,04,15,11,21,139.70
2006,04,15,11,22,95.30
2006,04,15,11,23,103.20
2006,04,15,11,24,117.90
2006,04,15,11,25,111.60
2006,04,15,11,26,103.60
2006,04,15,11,27,123.70
2006,04,15,11,28,130.00
2006,04,15,11,29,127.50
2006,04,15,11,30,116.00
2006,04,15,11,31,115.00
2006,04,15,11,32,119.70
2006,04,15,11,33,123.00
2006,04,15,11,34,111.60
2006,04,15,11,35,111.00
2006,04,15,11,36,114.50
2006,04,15,11,37,118.50
2006,04,15,11,38,114.10
2006,04,15,11,39,117.20
2006,04,15,11,40,114.20
2006,04,15,11,41,114.40
2006,04,15,11,42,105.60
2006,04,15,11,43,91.70
2006,04,15,11,44,108.70
2006,04,15,11,45,124.80
2006,04,15,11,46,123.70
2006,04,15,11,47,105.50
2006,04,15,11,48,118.20
2006,04,15,11,49,144.30
2006,04,15,11,50,144.70
2006,04,15,11,51,125.80
2006,04,15,11,52,106.70
2006,04,15,11,53,129.30
2006,04,15,11,54,123.00
2006,04,15,11,55,109.20
2006,04,15,11,56,89.70
2006,04,15,11,57,87.70
2006,04,15,11,58,98.80
2006,04,15,11,59,102.00
2006,04,15,12,00,102.00
2006,04,15,12,01,95.40
2006,04,15,12,02,88.80
2006,04,15,12,03,82.80
2006,04,15,12,04,92.80
2006,04,15,12,05,76.20
2006,04,15,12,06,75.90
2006,04,15,12,07,79.60
2006,04,15,12,08,72.40
2006,04,15,12,09,76.20
2006,04,15,12,10,72.00
2006,04,15,12,11,73.50
2006,04,15,12,12,75.00
2006,04,15,12,13,74.00
2006,04,15,12,14,82.00
2006,04,15,12,15,78.30
2006,04,15,12,16,60.00
2006,04,15,12,17,57.60
2006,04,15,12,18,54.00
2006,04,15,12,19,54.00
2006,04,15,12,20,50.00
2006,04,15,12,21,46.00
2006,04,15,12,22,44.80
2006,04,15,12,23,51.40
2006,04,15,12,24,55.40
2006,04,15,12,25,50.20
2006,04,15,12,26,54.90
2006,04,15,12,27,55.20
2006,04,15,12,28,51.80
2006,04,15,12,29,54.00
2006,04,15,12,30,48.50
2006,04,15,12,31,46.10
2006,04,15,12,32,47.00
2006,04,15,12,33,49.00
2006,04,15,12,34,49.00
2006,04,15,12,35,48.20
2006,04,15,12,36,48.10
2006,04,15,12,37,46.90
2006,04,15,12,38,46.00
2006,04,15,12,39,48.00
2006,04,15,12,40,54.60
2006,04,15,12,41,57.90
2006,04,15,12,42,66.90
2006,04,15,12,43,60.00
2006,04,15,12,44,55.70
2006,04,15,12,45,51.20
2006,04,15,12,46,55.60
2006,04,15,12,47,46.00
2006,04,15,12,48,50.40
2006,04,15,12,49,56.80
2006,04,15,12,50,56.90
2006,04,15,12,51,71.80
2006,04,15,12,52,86.50
2006,04,15,12,53,89.70
2006,04,15,12,54,79.50
2006,04,15,12,55,72.80
2006,04,15,12,56,77.40
2006,04,15,12,57,70.00
2006,04,15,12,58,68.20
2006,04,15,12,59,66.10
2006,04,15,13,00,68.30
2006,04,15,13,01,69.80
2006,04,15,13,02,69.10
2006,04,15,13,03,68.60
2006,04,15,13,04,67.00
2006,04,15,13,05,70.80
2006,04,15,13,06,70.60
2006,04,15,13,07,67.40
2006,04,15,13,08,61.40
2006,04,15,13,09,55.90
2006,04,15,13,10,51.00
2006,04,15,13,11,52.10
2006,04,15,13,12,53.00
2006,04,15,13,13,59.00
2006,04,15,13,14,53.00
2006,04,15,13,15,54.50
2006,04,15,13,16,60.10
2006,04,15,13,17,64.10
2006,04,15,13,18,63.50
2006,04,15,13,19,63.00
2006,04,15,13,20,69.20
2006,04,15,13,21,70.00
2006,04,15,13,22,68.70
2006,04,15,13,23,64.00
2006,04,15,13,24,56.10
2006,04,15,13,25,53.50
2006,04,15,13,26,62.00
2006,04,15,13,27,62.00
2006,04,15,13,28,69.50
2006,04,15,13,29,72.60
2006,04,15,13,30,73.00
2006,04,15,13,31,78.30
2006,04,15,13,32,75.20
2006,04,15,13,33,73.40
2006,04,15,13,34,75.10
2006,04,15,13,35,77.20
2006,04,15,13,36,82.90
2006,04,15,13,37,90.90
2006,04,15,13,38,98.70
2006,04,15,13,39,108.80
2006,04,15,13,40,119.70
2006,04,15,13,41,123.00
2006,04,15,13,42,143.00
2006,04,15,13,43,151.20
2006,04,15,13,44,154.80
2006,04,15,13,45,160.00
2006,04,15,13,46,160.00
2006,04,15,13,47,220.20
2006,04,15,13,48,279.20
2006,04,15,13,49,352.50
2006,04,15,13,50,429.00
2006,04,15,13,51,429.00
2006,04,15,13,52,429.00
2006,04,15,13,53,429.00
2006,04,15,13,54,429.00
2006,04,15,13,55,564.00
2006,04,15,13,56,564.00
2006,04,15,13,57,564.00
2006,04,15,13,58,495.70
2006,04,15,13,59,462.10
2006,04,15,14,00,469.00
2006,04,15,14,01,504.80
2006,04,15,14,02,696.00
2006,04,15,14,03,965.50
2006,04,15,14,04,1336.00
2006,04,15,14,05,1336.00
2006,04,15,14,06,1336.00
2006,04,15,14,07,1193.90
2006,04,15,14,08,637.50
2006,04,15,14,09,579.80
2006,04,15,14,10,564.00
2006,04,15,14,11,564.00
2006,04,15,14,12,564.00
2006,04,15,14,13,646.40
2006,04,15,14,14,976.00
2006,04,15,14,15,775.50
2006,04,15,14,16,563.30
2006,04,15,14,17,503.40
2006,04,15,14,18,490.00
2006,04,15,14,19,448.80
2006,04,15,14,20,315.40
2006,04,15,14,21,299.00
2006,04,15,14,22,299.00
2006,04,15,14,23,299.00
2006,04,15,14,24,345.50
2006,04,15,14,25,348.00
2006,04,15,14,26,348.00
2006,04,15,14,27,348.00
2006,04,15,14,28,544.30
2006,04,15,14,29,650.00
2006,04,15,14,30,650.00
2006,04,15,14,31,650.00
2006,04,15,14,32,514.40
2006,04,15,14,33,298.80
2006,04,15,14,34,287.90
2006,04,15,14,35,308.90
2006,04,15,14,36,360.50
2006,04,15,14,37,398.60
2006,04,15,14,38,427.80
2006,04,15,14,39,449.10
2006,04,15,14,40,455.00
2006,04,15,14,41,401.00
2006,04,15,14,42,346.60
2006,04,15,14,43,317.40
2006,04,15,14,44,301.00
2006,04,15,14,45,279.60
2006,04,15,14,46,261.00
2006,04,15,14,47,277.00
2006,04,15,14,48,279.00
2006,04,15,14,49,307.20
2006,04,15,14,50,344.00
2006,04,15,14,51,287.80
2006,04,15,14,52,272.00
2006,04,15,14,53,284.40
2006,04,15,14,54,285.00
2006,04,15,14,55,285.00
2006,04,15,14,56,285.00
2006,04,15,14,57,562.50
2006,04,15,14,58,702.50
2006,04,15,14,59,700.00
2006,04,15,15,00,621.80
2006,04,15,15,01,335.50
2006,04,15,15,02,381.00
2006,04,15,15,03,381.00
2006,04,15,15,04,381.00
2006,04,15,15,05,381.00
2006,04,15,15,06,350.20
2006,04,15,15,07,244.00
2006,04,15,15,08,223.00
2006,04,15,15,09,218.40
2006,04,15,15,10,216.00
2006,04,15,15,11,216.70
2006,04,15,15,12,225.50
2006,04,15,15,13,227.00
2006,04,15,15,14,227.00
2006,04,15,15,15,214.40
2006,04,15,15,16,207.30
2006,04,15,15,17,199.00
2006,04,15,15,18,195.60
2006,04,15,15,19,185.60
2006,04,15,15,20,185.00
2006,04,15,15,21,209.50
2006,04,15,15,22,255.80
2006,04,15,15,23,280.90
2006,04,15,15,24,396.90
2006,04,15,15,25,382.10
2006,04,15,15,26,344.60
2006,04,15,15,27,294.60
2006,04,15,15,28,283.00
2006,04,15,15,29,274.90
2006,04,15,15,30,231.30
2006,04,15,15,31,225.30
2006,04,15,15,32,220.00
2006,04,15,15,33,220.00
2006,04,15,15,34,196.80
2006,04,15,15,35,185.90
2006,04,15,15,36,174.90
2006,04,15,15,37,169.00
2006,04,15,15,38,169.00
2006,04,15,15,39,146.60
2006,04,15,15,40,132.10
2006,04,15,15,41,128.00
2006,04,15,15,42,128.00
2006,04,15,15,43,125.40
2006,04,15,15,44,118.40
2006,04,15,15,45,110.50
2006,04,15,15,46,104.00
2006,04,15,15,47,101.50
2006,04,15,15,48,100.00
2006,04,15,15,49,94.70
2006,04,15,15,50,85.10
2006,04,15,15,51,79.60
2006,04,15,15,52,80.30
2006,04,15,15,53,88.50
2006,04,15,15,54,88.40
2006,04,15,15,55,81.10
2006,04,15,15,56,77.00
2006,04,15,15,57,77.00
2006,04,15,15,58,74.00
2006,04,15,15,59,56.80
2006,04,15,16,00,51.90
2006,04,15,16,01,49.00
2006,04,15,16,02,40.00
2006,04,15,16,03,30.50
2006,04,15,16,04,26.00
2006,04,15,16,05,25.20
2006,04,15,16,06,23.00
2006,04,15,16,07,24.20
2006,04,15,16,08,28.80
2006,04,15,16,09,38.70
2006,04,15,16,10,53.40
2006,04,15,16,11,67.40
2006,04,15,16,12,86.00
2006,04,15,16,13,110.80
2006,04,15,16,14,120.00
2006,04,15,16,15,182.70
2006,04,15,16,16,183.50
2006,04,15,16,17,166.60
2006,04,15,16,18,143.50
2006,04,15,16,19,118.20
2006,04,15,16,20,94.80
2006,04,15,16,21,79.60
2006,04,15,16,22,75.60
2006,04,15,16,23,60.50
2006,04,15,16,24,53.20
2006,04,15,16,25,48.30
2006,04,15,16,26,47.00
2006,04,15,16,27,47.70
2006,04,15,16,28,57.80
2006,04,15,16,29,77.80
2006,04,15,16,30,108.50
2006,04,15,16,31,174.40
2006,04,15,16,32,200.00
2006,04,15,16,33,200.00
2006,04,15,16,34,200.00
2006,04,15,16,35,200.00
2006,04,15,16,36,200.00
2006,04,15,16,37,337.90
2006,04,15,16,38,397.00
2006,04,15,16,39,397.00
2006,04,15,16,40,343.90
2006,04,15,16,41,220.00
2006,04,15,16,42,190.50
2006,04,15,16,43,169.00
2006,04,15,16,44,169.00
2006,04,15,16,45,168.40
2006,04,15,16,46,167.20
2006,04,15,16,47,167.90
2006,04,15,16,48,149.80
2006,04,15,16,49,127.70
2006,04,15,16,50,113.60
2006,04,15,16,51,104.00
2006,04,15,16,52,98.00
2006,04,15,16,53,83.60
2006,04,15,16,54,87.80
2006,04,15,16,55,96.20
2006,04,15,16,56,98.00
2006,04,15,16,57,98.00
2006,04,15,16,58,86.40
2006,04,15,16,59,65.00
2006,04,15,17,00,59.40
2006,04,15,17,01,52.10
2006,04,15,17,02,53.20
2006,04,15,17,03,59.00
2006,04,15,17,04,62.00
2006,04,15,17,05,62.00
2006,04,15,17,06,62.00
2006,04,15,17,07,74.00
2006,04,15,17,08,83.70
2006,04,15,17,09,82.70
2006,04,15,17,10,78.20
2006,04,15,17,11,76.50
2006,04,15,17,12,76.00
2006,04,15,17,13,76.00
2006,04,15,17,14,79.50
2006,04,15,17,15,114.40
2006,04,15,17,16,128.00
2006,04,15,17,17,128.00
2006,04,15,17,18,128.00
2006,04,15,17,19,147.60
2006,04,15,17,20,151.80